This is the latest recevied weather packets stored in our database for station/object SR9NLI. If no packets are shown the sender has not sent any weather packets the latest 1 day(s).
| Time | Temp. | Humidity | Pressure | Rain* | Wind** | Luminosity | Snow |
|---|---|---|---|---|---|---|---|
| 1778004389 | 20° C | 100% | 949.8 hPa | - | 1.34 m/s, 178° | - | - |
| 1778004266 | 20° C | 100% | 949.9 hPa | - | 1.79 m/s, 174° | - | - |
| 1778004143 | 20° C | 100% | 949.8 hPa | - | 1.79 m/s, 174° | - | - |
| 1778004082 | 20° C | 100% | 949.8 hPa | - | 1.79 m/s, 178° | - | - |
| 1778004021 | 20° C | 100% | 949.8 hPa | - | 1.79 m/s, 179° | - | - |
| 1778003898 | 20° C | 100% | 949.8 hPa | - | 1.79 m/s, 188° | - | - |
| 1778003774 | 20° C | 100% | 949.9 hPa | - | 1.34 m/s, 196° | - | - |
| 1778003714 | 20° C | 100% | 949.8 hPa | - | 0.89 m/s, 195° | - | - |
| 1778003651 | 20° C | 100% | 949.9 hPa | - | 0.89 m/s, 208° | - | - |
| 1778003528 | 20° C | 100% | 949.9 hPa | - | 0.89 m/s, 182° | - | - |
| 1778003405 | 20° C | 100% | 950 hPa | - | 1.34 m/s, 179° | - | - |
| 1778003344 | 20° C | 100% | 950 hPa | - | 1.79 m/s, 181° | - | - |
| 1778003281 | 20° C | 100% | 950 hPa | - | 1.34 m/s, 171° | - | - |
| 1778003159 | 20° C | 100% | 950 hPa | - | 1.34 m/s, 176° | - | - |
| 1778003036 | 20° C | 100% | 949.8 hPa | - | 1.79 m/s, 185° | - | - |
| 1778002975 | 20° C | 100% | 949.9 hPa | - | 1.79 m/s, 189° | - | - |
| 1778002912 | 20° C | 100% | 949.8 hPa | - | 2.24 m/s, 187° | - | - |
| 1778002790 | 20.56° C | 100% | 949.9 hPa | - | 1.79 m/s, 180° | - | - |
| 1778002667 | 20.56° C | 100% | 949.9 hPa | - | 2.24 m/s, 173° | - | - |
| 1778002607 | 20.56° C | 100% | 950 hPa | - | 2.24 m/s, 177° | - | - |
| 1778002544 | 20.56° C | 100% | 949.8 hPa | - | 1.79 m/s, 183° | - | - |
| 1778002421 | 20.56° C | 100% | 949.9 hPa | - | 1.34 m/s, 187° | - | - |
| 1778002298 | 20.56° C | 100% | 949.8 hPa | - | 1.79 m/s, 177° | - | - |
| 1778002238 | 20.56° C | 100% | 949.9 hPa | - | 1.79 m/s, 177° | - | - |
| 1778002176 | 20.56° C | 100% | 949.8 hPa | - | 1.34 m/s, 186° | - | - |
* Rain since midnight (hover to see other rain measurements)
** Current wind speed in m/s (hover to see current wind gust speed)